This demonstration page uses our WeatherBlox Daily Observations layout. Learn more.

Left ArrowRight Arrow

53.62937, 11.41316

Hourly Observations for September 3, 2021

Temp ( °F °C ) Dew Point ( °F °C ) Humidity (%) Winds ( mph kmh ) Pressure ( in mb ) Visibility ( mi km ) Precip ( " mm )
7:50 am 07:50 Mostly Cloudy 57 14 55 13 94 94 WSW 7 11 30.15 1021 30 48 N/A
8:20 am 08:20 Mostly Cloudy 57 14 55 13 94 94 WSW 8 13 30.15 1021 30 48 N/A
8:50 am 08:50 Mostly Cloudy 57 14 55 13 94 94 WSW 7 11 30.15 1021 30 48 N/A
9:20 am 09:20 Mostly Cloudy 59 15 54 12 82 82 WSW 7 11 30.15 1021 30 48 N/A
9:50 am 09:50 Partly Cloudy 59 15 54 12 82 82 SW 8 13 30.12 1020 30 48 N/A
10:20 am 10:20 Partly Cloudy 61 16 54 12 77 77 WSW 7 11 30.12 1020 30 48 N/A
10:50 am 10:50 Partly Cloudy 63 17 54 12 73 73 WSW 8 13 30.12 1020 30 48 N/A
11:20 am 11:20 Mostly Sunny 63 17 55 13 77 77 WSW 10 17 30.12 1020 7 11 N/A
11:50 am 11:50 Mostly Sunny 64 18 55 13 73 73 SW 8 13 30.12 1020 7 11 N/A
12:20 pm 12:20 Mostly Sunny 64 18 54 12 68 68 SW 12 19 30.12 1020 7 11 N/A
12:50 pm 12:50 Mostly Sunny 66 19 55 13 68 68 SW 10 17 30.12 1020 7 11 N/A
1:20 pm 13:20 Mostly Sunny 66 19 54 12 64 64 WSW 8 13 30.12 1020 7 11 N/A
1:50 pm 13:50 Mostly Sunny 68 20 55 13 64 64 WSW 7 11 30.09 1019 7 11 N/A
2:20 pm 14:20 Mostly Sunny 68 20 55 13 64 64 SW 9 15 30.09 1019 7 11 N/A
2:50 pm 14:50 Mostly Sunny 70 21 57 14 64 64 SW 7 11 30.09 1019 7 11 N/A
3:20 pm 15:20 Mostly Sunny 70 21 55 13 60 60 WSW 8 13 30.09 1019 7 11 N/A
3:50 pm 15:50 Mostly Sunny 70 21 55 13 60 60 WSW 7 11 30.09 1019 7 11 N/A
4:20 pm 16:20 Mostly Sunny 70 21 57 14 64 64 VRB 9 15 30.09 1019 7 11 N/A
4:50 pm 16:50 Mostly Sunny 70 21 57 14 64 64 SW 8 13 30.06 1018 7 11 N/A
5:20 pm 17:20 Mostly Sunny 70 21 57 14 64 64 SW 8 13 30.06 1018 7 11 N/A
5:50 pm 17:50 Mostly Sunny 70 21 57 14 64 64 SW 7 11 30.06 1018 7 11 N/A
6:20 pm 18:20 Mostly Sunny 68 20 57 14 69 69 SW 7 11 30.06 1018 7 11 N/A
6:50 pm 18:50 Mostly Sunny 68 20 57 14 69 69 WSW 7 11 30.06 1018 7 11 N/A
7:20 pm 19:20 Mostly Sunny 66 19 57 14 73 73 WSW 5 7 30.06 1018 7 11 N/A
7:50 pm 19:50 Mostly Sunny 64 18 55 13 73 73 WSW 5 7 30.06 1018 7 11 N/A
8:20 pm 20:20 Mostly Clear 61 16 55 13 83 83 WSW 5 7 30.06 1018 7 11 N/A
8:50 pm 20:50 Mostly Clear 61 16 55 13 83 83 WSW 5 7 30.06 1018 7 11 N/A
9:20 pm 21:20 Mostly Clear 59 15 54 12 82 82 WSW 5 7 30.06 1018 7 11 N/A
9:50 pm 21:50 Mostly Clear 57 14 54 12 88 88 WSW 3 6 30.06 1018 7 11 N/A

Powered by AerisWeather